Monroe, MI

10:59 AM EDT on August 25, 2016 (GMT -0400)
Custer

Weather History for KTTF - November, 2012

Change the Weather History Date:

Thursday, November 1, 2012

  Actual Average Record
Temperature  
Mean Temperature 46 °F -  
Max Temperature 51 °F 57 °F 81 °F (1950)
Min Temperature 42 °F 41 °F 25 °F (1934)
Degree Days  
Heating Degree Days 18    
Moisture  
Dew Point 34 °F    
Average Humidity 67    
Maximum Humidity 87    
Minimum Humidity 43    
Precipitation  
Precipitation 0.00 in - - ()
Sea Level Pressure  
Sea Level Pressure 29.71 in    
Wind  
Wind Speed 10 mph (WNW)    
Max Wind Speed 16 mph    
Max Gust Speed 22 mph    
Visibility 10 miles    
Events      
Averages and records for this station are not official NWS values.
T = Trace of Precipitation, MM = Missing Value Source: NWS Daily Summary

Daily Weather History Graph

Daily Weather History Graph

Search for Another Location

Airport or City:

Trip Planner

Search our weather history database for the weather conditions in past years. The results will help you decide how hot, cold, wet, or windy it might be!

Date:

Astronomy

Nov. 01, 2012 Rise Set
Actual Time 8:06 AM EDT 6:27 PM EDT
Civil Twilight 7:37 AM EDT 6:56 PM EDT
Nautical Twilight 7:04 AM EDT 7:29 PM EDT
Astronomical Twilight 6:32 AM EDT 8:01 PM EDT
Moon 8:21 PM EDT (11/1) 10:40 AM EDT (11/1)
Length of Visible Light 11h 18m
Length of Day
10h 20m
Waning Gibbous, 93% of the Moon is Illuminated
Nov 1
Waning Gibbous
Nov 6
Last Quarter
Nov 13
New
Nov 20
First Quarter
Nov 28
Full

Hourly Weather History & Observations

Time (EDT) Temp. Windchill Dew Point Humidity Pressure Visibility Wind Dir Wind Speed Gust Speed Precip Events Conditions
12:11 AM 42.8 °F 37.5 °F 39.2 °F 87% 29.66 in 10.0 mi WNW 9.2 mph - N/A   Overcast
12:32 AM 42.8 °F 37.0 °F 39.2 °F 87% 29.66 in 10.0 mi WNW 10.4 mph - N/A   Overcast
12:52 AM 42.8 °F 37.5 °F 39.2 °F 87% 29.66 in 10.0 mi West 9.2 mph - N/A   Overcast
1:12 AM 42.8 °F 37.0 °F 39.2 °F 87% 29.66 in 10.0 mi WNW 10.4 mph - N/A   Overcast
1:32 AM 42.8 °F 36.6 °F 37.4 °F 81% 29.66 in 10.0 mi WNW 11.5 mph - N/A   Overcast
1:52 AM 42.8 °F 37.0 °F 37.4 °F 81% 29.66 in 10.0 mi WNW 10.4 mph - N/A   Overcast
2:12 AM 42.8 °F 38.0 °F 37.4 °F 81% 29.66 in 10.0 mi WNW 8.1 mph - N/A   Overcast
2:32 AM 42.8 °F 37.0 °F 37.4 °F 81% 29.66 in 10.0 mi WNW 10.4 mph 16.1 mph N/A   Overcast
2:52 AM 42.8 °F 38.0 °F 37.4 °F 81% 29.66 in 10.0 mi WNW 8.1 mph - N/A   Overcast
3:12 AM 42.8 °F 37.0 °F 37.4 °F 81% 29.66 in 10.0 mi WNW 10.4 mph - N/A   Overcast
3:33 AM 42.8 °F 37.0 °F 37.4 °F 81% 29.66 in 10.0 mi WNW 10.4 mph 17.3 mph N/A   Overcast
3:53 AM 42.8 °F 38.0 °F 37.4 °F 81% 29.66 in 10.0 mi WNW 8.1 mph - N/A   Overcast
4:13 AM 42.8 °F 37.5 °F 37.4 °F 81% 29.66 in 10.0 mi WNW 9.2 mph - N/A   Overcast
4:33 AM 42.8 °F 38.0 °F 37.4 °F 81% 29.66 in 10.0 mi WNW 8.1 mph - N/A   Overcast
5:13 AM 42.8 °F 37.5 °F 37.4 °F 81% 29.67 in 10.0 mi West 9.2 mph - N/A   Overcast
5:33 AM 42.8 °F 37.0 °F 37.4 °F 81% 29.67 in 10.0 mi WNW 10.4 mph - N/A   Overcast
5:53 AM 42.8 °F 37.0 °F 37.4 °F 81% 29.67 in 10.0 mi WNW 10.4 mph - N/A   Overcast
6:13 AM 42.8 °F 36.2 °F 37.4 °F 81% 29.68 in 10.0 mi West 12.7 mph - N/A   Overcast
6:33 AM 42.8 °F 37.0 °F 37.4 °F 81% 29.68 in 10.0 mi WNW 10.4 mph - N/A   Overcast
6:54 AM 42.8 °F 37.5 °F 37.4 °F 81% 29.68 in 10.0 mi WNW 9.2 mph 17.3 mph N/A   Overcast
7:14 AM 42.8 °F 37.0 °F 37.4 °F 81% 29.69 in 10.0 mi WNW 10.4 mph - N/A   Overcast
7:34 AM 42.8 °F 37.0 °F 37.4 °F 81% 29.69 in 10.0 mi WNW 10.4 mph - N/A   Overcast
7:54 AM 42.8 °F 38.0 °F 37.4 °F 81% 29.69 in 10.0 mi WNW 8.1 mph - N/A   Overcast
8:34 AM 42.8 °F 37.0 °F 35.6 °F 76% 29.70 in 10.0 mi WNW 10.4 mph - N/A   Overcast
8:54 AM 42.8 °F 38.0 °F 35.6 °F 76% 29.71 in 10.0 mi WNW 8.1 mph - N/A   Overcast
9:14 AM 42.8 °F 36.6 °F 35.6 °F 76% 29.71 in 10.0 mi WNW 11.5 mph 16.1 mph N/A   Overcast
9:34 AM 42.8 °F 36.6 °F 35.6 °F 76% 29.71 in 10.0 mi WNW 11.5 mph - N/A   Overcast
9:54 AM 42.8 °F 37.0 °F 35.6 °F 76% 29.72 in 10.0 mi West 10.4 mph - N/A   Overcast
10:15 AM 42.8 °F 36.6 °F 35.6 °F 76% 29.73 in 10.0 mi WNW 11.5 mph 17.3 mph N/A   Overcast
10:35 AM 42.8 °F 35.8 °F 33.8 °F 70% 29.73 in 10.0 mi NW 13.8 mph 20.7 mph N/A   Overcast
10:55 AM 42.8 °F 36.6 °F 33.8 °F 70% 29.73 in 10.0 mi WNW 11.5 mph - N/A   Overcast
11:15 AM 42.8 °F 36.6 °F 33.8 °F 70% 29.73 in 10.0 mi WNW 11.5 mph - N/A   Overcast
11:35 AM 42.8 °F 36.2 °F 35.6 °F 76% 29.73 in 10.0 mi West 12.7 mph 19.6 mph N/A   Overcast
11:55 AM 42.8 °F 35.4 °F 35.6 °F 76% 29.74 in 10.0 mi WNW 15.0 mph 19.6 mph N/A   Overcast
12:15 PM 42.8 °F 36.6 °F 33.8 °F 70% 29.74 in 10.0 mi WNW 11.5 mph 18.4 mph N/A   Overcast
12:35 PM 42.8 °F 36.6 °F 33.8 °F 70% 29.74 in 10.0 mi WNW 11.5 mph 18.4 mph N/A   Overcast
1:15 PM 44.6 °F 39.7 °F 33.8 °F 66% 29.73 in 10.0 mi West 9.2 mph - N/A   Overcast
1:36 PM 44.6 °F 38.4 °F 32.0 °F 61% 29.72 in 10.0 mi WNW 12.7 mph 20.7 mph N/A   Mostly Cloudy
1:51 PM 46.4 °F 41.5 °F 33.8 °F 62% 29.71 in 10.0 mi West 10.4 mph 18.4 mph N/A   Scattered Clouds
2:11 PM 48.2 °F - 32.0 °F 54% 29.70 in 10.0 mi NW 13.8 mph 18.4 mph N/A   Scattered Clouds
2:31 PM 48.2 °F - 32.0 °F 54% 29.70 in 10.0 mi West 16.1 mph 21.9 mph N/A   Clear
2:51 PM 50.0 °F - 33.8 °F 54% 29.69 in 10.0 mi West 11.5 mph 16.1 mph N/A   Clear
3:11 PM 50.0 °F - 32.0 °F 50% 29.69 in 10.0 mi WNW 12.7 mph 21.9 mph N/A   Scattered Clouds
3:31 PM 50.0 °F - 30.2 °F 47% 29.69 in 10.0 mi WNW 12.7 mph 19.6 mph N/A   Clear
3:51 PM 51.8 °F - 30.2 °F 44% 29.69 in 10.0 mi West 15.0 mph - N/A   Clear
4:11 PM 50.0 °F - 30.2 °F 47% 29.69 in 10.0 mi West 13.8 mph - N/A   Scattered Clouds
4:31 PM 50.0 °F - 30.2 °F 47% 29.69 in 10.0 mi West 13.8 mph 18.4 mph N/A   Mostly Cloudy
4:52 PM 50.0 °F - 30.2 °F 47% 29.69 in 10.0 mi WNW 11.5 mph 16.1 mph N/A   Overcast
5:12 PM 50.0 °F - 30.2 °F 47% 29.69 in 10.0 mi WNW 10.4 mph 16.1 mph N/A   Overcast
5:32 PM 48.2 °F - 30.2 °F 50% 29.69 in 10.0 mi WNW 8.1 mph - N/A   Overcast
5:52 PM 48.2 °F - 26.6 °F 43% 29.70 in 10.0 mi NW 11.5 mph - N/A   Overcast
6:12 PM 48.2 °F - 28.4 °F 46% 29.70 in 10.0 mi NW 8.1 mph - N/A   Overcast
6:32 PM 46.4 °F 43.5 °F 28.4 °F 50% 29.71 in 10.0 mi WNW 5.8 mph - N/A   Overcast
6:52 PM 46.4 °F 41.5 °F 30.2 °F 53% 29.72 in 10.0 mi WNW 10.4 mph - N/A   Overcast
7:12 PM 44.6 °F 40.7 °F 30.2 °F 57% 29.73 in 10.0 mi West 6.9 mph - N/A   Overcast
7:32 PM 44.6 °F 42.2 °F 30.2 °F 57% 29.73 in 10.0 mi West 4.6 mph - N/A   Overcast
7:53 PM 44.6 °F 40.7 °F 30.2 °F 57% 29.74 in 10.0 mi West 6.9 mph - N/A   Overcast
8:13 PM 44.6 °F 41.4 °F 30.2 °F 57% 29.74 in 10.0 mi WNW 5.8 mph - N/A   Overcast
8:33 PM 44.6 °F 41.4 °F 30.2 °F 57% 29.74 in 10.0 mi WNW 5.8 mph - N/A   Overcast
8:53 PM 44.6 °F 40.2 °F 30.2 °F 57% 29.75 in 10.0 mi West 8.1 mph - N/A   Overcast
9:13 PM 44.6 °F 40.2 °F 28.4 °F 53% 29.75 in 10.0 mi WNW 8.1 mph - N/A   Overcast
9:33 PM 44.6 °F 39.7 °F 28.4 °F 53% 29.76 in 10.0 mi WNW 9.2 mph - N/A   Overcast
9:53 PM 42.8 °F 36.2 °F 28.4 °F 57% 29.76 in 10.0 mi WNW 12.7 mph - N/A   Overcast
10:13 PM 42.8 °F 37.0 °F 28.4 °F 57% 29.77 in 10.0 mi WNW 10.4 mph 17.3 mph N/A   Overcast
10:33 PM 42.8 °F 37.0 °F 28.4 °F 57% 29.77 in 10.0 mi WNW 10.4 mph - N/A   Overcast
10:53 PM 42.8 °F 36.6 °F 28.4 °F 57% 29.77 in 10.0 mi WNW 11.5 mph 19.6 mph N/A   Overcast
11:13 PM 42.8 °F 36.6 °F 28.4 °F 57% 29.77 in 10.0 mi WNW 11.5 mph - N/A   Overcast
11:34 PM 42.8 °F 37.0 °F 28.4 °F 57% 29.77 in 10.0 mi NW 10.4 mph - N/A   Overcast
11:54 PM 42.8 °F 37.0 °F 28.4 °F 57% 29.78 in 10.0 mi NW 10.4 mph - N/A   Overcast